Location: Hertford
(51.8000°N, 0.0667°W)
Time: 22:17:26
(UTC+00:00)

H-2A R/B - Pass Details

Date: 18 September 2020
Orbit: 734 x 836 km, 98.2° (Epoch: 30 October)

Event Time Altitude Azimuth Distance (km) Brightness Sun altitude
Rises 19:14:41 0° 174° (S) 3,163 5.0 -11.1°
Reaches altitude 10° 19:16:58 10° 177° (S) 2,253 4.2 -11.5°
Maximum altitude 19:21:52 62° 259° (WSW) 852 2.5 -12.2°
Drops below altitude 10° 19:26:55 10° 340° (NNW) 2,322 5.1 -12.9°
Sets 19:29:18 0° 344° (NNW) 3,270 5.8 -13.3°
